Terminal Aerodrome Forecast
Issued by NWS Northern Indiana

Home | Current Version | Previous Version | Text Only | Print | Product List | Glossary On
Versions: 1 2 3 4 5 6 7 8 9 10 11 12 13 14 15
000
FTUS43 KIWX 240500
TAFFWA
TAF
KFWA 240520Z 2406/2506 VRB02KT P6SM SKC
     FM241400 11007KT P6SM SCT250
     FM250000 09003KT P6SM BKN250=

USA.gov is the U.S. government's official web portal to all federal, state and local government web resources and services.